Orbital Elements at Epoch 2459200.5 (2020-Dec-17.0) TDB
Reference: JPL 15 (heliocentric ecliptic J2000)
Element | Value | Uncertainty (1-sigma) | Units |
e | .219221440136945 | 4.5381e-08 | |
a | 2.358702834051915 | 7.9232e-09 | au |
q | 1.84162460191596 | 1.0942e-07 | au |
i | 1.671689410805498 | 4.9312e-06 | deg |
node | 157.5048017495167 | 0.00017662 | deg |
peri | 276.864377997677 | 0.00017736 | deg |
M | 86.26122258836898 | 1.3774e-05 | deg |
tp | 2458883.454656838859 (2020-Feb-03.95465684) | 5.037e-05 | TDB |
period | 1323.14752925146 3.62 | 6.6669e-06 1.825e-08 | d yr |
n | .2720785037505695 | 1.3709e-09 | deg/d |
Q | 2.875781066187869 | 9.6601e-09 | au |
|
| | Orbit Determination Parameters
Additional Information
|